When you browse on this site, cookies collect data to enhance your experience and personalize the content and advertising you see.
Visit our Privacy Policy to learn more. By continuing to use the site, you agree to this use of cookies and data.
  • en France
  • Liste des pays
  • À 7 jours
  • Température de l'eau
  • Carte météo
  • Widgets météo
  • user-avatar
    Se connecter

    Météo par heure à Harare

    Ce jour, 5 Juin, Vendredi

    Heure Température Précipitation Vent Pression Humidité
    00:00 +10°C° 0 mm 2 m/s 640 mmHg 88%
    01:00 +10°C° 0 mm 2 m/s 640 mmHg 89%
    02:00 +10°C° 0 mm 2 m/s 640 mmHg 89%
    03:00 +10°C° 0 mm 2 m/s 640 mmHg 90%
    04:00 +10°C° 0 mm 1 m/s 640 mmHg 90%
    05:00 +10°C° 0 mm 1 m/s 640 mmHg 90%
    06:00 +12°C° 0 mm 1 m/s 641 mmHg 83%
    07:00 +13°C° 0 mm 1 m/s 642 mmHg 76%
    08:00 +15°C° 0 mm 1 m/s 643 mmHg 67%
    09:00 +19°C° 0 mm 1 m/s 643 mmHg 57%
    10:00 +21°C° 0 mm 1 m/s 644 mmHg 46%
    11:00 +24°C° 0 mm 1 m/s 644 mmHg 36%
    12:00 +25°C° 0 mm 1 m/s 644 mmHg 33%
    13:00 +25°C° 0 mm 1 m/s 643 mmHg 31%
    14:00 +24°C° 0 mm 0 m/s 643 mmHg 28%
    15:00 +25°C° 0 mm 1 m/s 642 mmHg 31%
    16:00 +23°C° 0 mm 1 m/s 641 mmHg 34%
    17:00 +22°C° 0 mm 1 m/s 641 mmHg 37%
    18:00 +20°C° 0 mm 2 m/s 641 mmHg 39%
    19:00 +19°C° 0 mm 2 m/s 642 mmHg 41%
    20:00 +18°C° 0 mm 3 m/s 642 mmHg 44%
    21:00 +17°C° 0 mm 2 m/s 642 mmHg 48%
    22:00 +16°C° 0 mm 2 m/s 642 mmHg 53%
    23:00 +15°C° 0 mm 2 m/s 642 mmHg 58%

    Demain, 6 Juin, Samedi

    Heure Température Précipitation Vent Pression Humidité
    00:00 +14°C° 0 mm 2 m/s 642 mmHg 62%
    01:00 +14°C° 0 mm 2 m/s 642 mmHg 67%
    02:00 +13°C° 0 mm 1 m/s 641 mmHg 71%
    03:00 +12°C° 0 mm 1 m/s 641 mmHg 75%
    04:00 +11°C° 0 mm 1 m/s 640 mmHg 79%
    05:00 +10°C° 0 mm 1 m/s 640 mmHg 83%
    06:00 +12°C° 0 mm 1 m/s 641 mmHg 76%
    07:00 +13°C° 0 mm 1 m/s 642 mmHg 70%
    08:00 +14°C° 0 mm 1 m/s 643 mmHg 63%
    09:00 +18°C° 0 mm 1 m/s 643 mmHg 55%
    10:00 +21°C° 0 mm 1 m/s 644 mmHg 46%
    11:00 +23°C° 0 mm 1 m/s 644 mmHg 38%
    12:00 +23°C° 0 mm 1 m/s 644 mmHg 38%
    13:00 +23°C° 0 mm 1 m/s 643 mmHg 37%
    14:00 +21°C° 0 mm 2 m/s 642 mmHg 37%
    15:00 +20°C° 0 mm 2 m/s 642 mmHg 41%
    16:00 +19°C° 0 mm 2 m/s 641 mmHg 46%
    17:00 +19°C° 0 mm 1 m/s 641 mmHg 51%
    18:00 +17°C° 0.1 mm 2 m/s 641 mmHg 55%
    19:00 +15°C° 0.1 mm 2 m/s 641 mmHg 60%
    20:00 +14°C° 0.1 mm 2 m/s 642 mmHg 64%
    21:00 +13°C° 0 mm 2 m/s 642 mmHg 67%
    22:00 +12°C° 0 mm 3 m/s 641 mmHg 70%
    23:00 +11°C° 0 mm 3 m/s 641 mmHg 74%

    Après-demain, 7 Juin, Dimanche

    Heure Température Précipitation Vent Pression Humidité
    00:00 +10°C° 0 mm 3 m/s 641 mmHg 79%
    01:00 +9°C° 0 mm 2 m/s 640 mmHg 85%
    02:00 +8°C° 0 mm 2 m/s 640 mmHg 90%
    03:00 +8°C° 0 mm 2 m/s 640 mmHg 90%
    04:00 +8°C° 0 mm 2 m/s 640 mmHg 91%
    05:00 +8°C° 0 mm 2 m/s 640 mmHg 91%
    06:00 +9°C° 0 mm 2 m/s 640 mmHg 84%
    07:00 +10°C° 0 mm 2 m/s 641 mmHg 78%
    08:00 +11°C° 0 mm 3 m/s 642 mmHg 72%
    09:00 +13°C° 0 mm 3 m/s 642 mmHg 60%
    10:00 +17°C° 0 mm 3 m/s 643 mmHg 48%
    11:00 +20°C° 0 mm 3 m/s 643 mmHg 36%
    12:00 +21°C° 0 mm 2 m/s 643 mmHg 32%
    13:00 +21°C° 0 mm 2 m/s 643 mmHg 27%
    14:00 +23°C° 0 mm 2 m/s 642 mmHg 23%
    15:00 +21°C° 0 mm 2 m/s 642 mmHg 27%
    16:00 +20°C° 0 mm 3 m/s 641 mmHg 31%
    17:00 +19°C° 0 mm 3 m/s 641 mmHg 36%
    18:00 +16°C° 0 mm 3 m/s 641 mmHg 44%
    19:00 +13°C° 0 mm 3 m/s 641 mmHg 53%
    20:00 +11°C° 0 mm 3 m/s 641 mmHg 61%
    21:00 +11°C° 0 mm 3 m/s 640 mmHg 62%
    22:00 +10°C° 0 mm 2 m/s 640 mmHg 63%
    23:00 +9°C° 0 mm 2 m/s 640 mmHg 64%

    8 Juin, Lundi

    Heure Température Précipitation Vent Pression Humidité
    00:00 +9°C° 0 mm 2 m/s 640 mmHg 66%
    01:00 +8°C° 0 mm 2 m/s 640 mmHg 68%
    02:00 +8°C° 0 mm 2 m/s 639 mmHg 70%
    03:00 +8°C° 0 mm 2 m/s 639 mmHg 75%
    04:00 +8°C° 0 mm 2 m/s 639 mmHg 80%
    05:00 +7°C° 0 mm 2 m/s 639 mmHg 84%
    06:00 +9°C° 0 mm 2 m/s 640 mmHg 78%
    07:00 +10°C° 0 mm 2 m/s 640 mmHg 71%
    08:00 +13°C° 0 mm 2 m/s 641 mmHg 65%
    09:00 +16°C° 0 mm 2 m/s 642 mmHg 54%
    10:00 +19°C° 0 mm 2 m/s 642 mmHg 44%
    11:00 +21°C° 0 mm 2 m/s 643 mmHg 33%
    12:00 +23°C° 0 mm 2 m/s 642 mmHg 30%
    13:00 +24°C° 0 mm 2 m/s 642 mmHg 27%
    14:00 +24°C° 0 mm 2 m/s 642 mmHg 23%
    15:00 +23°C° 0 mm 2 m/s 641 mmHg 27%
    16:00 +21°C° 0 mm 2 m/s 641 mmHg 30%
    17:00 +20°C° 0 mm 2 m/s 641 mmHg 34%
    18:00 +18°C° 0 mm 2 m/s 640 mmHg 46%
    19:00 +15°C° 0 mm 2 m/s 640 mmHg 58%
    20:00 +13°C° 0 mm 2 m/s 640 mmHg 71%
    21:00 +12°C° 0 mm 2 m/s 640 mmHg 73%
    22:00 +12°C° 0 mm 2 m/s 640 mmHg 75%
    23:00 +10°C° 0 mm 2 m/s 640 mmHg 78%

    9 Juin, Mardi

    Heure Température Précipitation Vent Pression Humidité
    00:00 +10°C° 0 mm 2 m/s 640 mmHg 80%
    01:00 +11°C° 0 mm 1 m/s 640 mmHg 83%
    02:00 +10°C° 0 mm 1 m/s 639 mmHg 86%
    03:00 +10°C° 0 mm 1 m/s 639 mmHg 87%
    04:00 +10°C° 0 mm 1 m/s 639 mmHg 88%
    05:00 +9°C° 0 mm 1 m/s 639 mmHg 89%
    06:00 +11°C° 0 mm 1 m/s 640 mmHg 81%
    07:00 +13°C° 0 mm 1 m/s 641 mmHg 74%
    08:00 +14°C° 0 mm 1 m/s 641 mmHg 66%
    09:00 +18°C° 0 mm 1 m/s 642 mmHg 55%
    10:00 +20°C° 0 mm 1 m/s 643 mmHg 44%
    11:00 +23°C° 0 mm 2 m/s 643 mmHg 33%
    12:00 +24°C° 0 mm 2 m/s 643 mmHg 30%
    13:00 +25°C° 0 mm 2 m/s 642 mmHg 27%
    14:00 +25°C° 0 mm 2 m/s 642 mmHg 24%
    15:00 +24°C° 0 mm 2 m/s 641 mmHg 26%
    16:00 +23°C° 0 mm 2 m/s 641 mmHg 29%
    17:00 +21°C° 0 mm 2 m/s 640 mmHg 32%
    18:00 +19°C° 0 mm 2 m/s 640 mmHg 40%
    19:00 +16°C° 0 mm 2 m/s 640 mmHg 48%
    20:00 +14°C° 0 mm 2 m/s 640 mmHg 56%
    21:00 +13°C° 0 mm 2 m/s 640 mmHg 62%
    22:00 +13°C° 0 mm 2 m/s 640 mmHg 67%
    23:00 +12°C° 0 mm 2 m/s 640 mmHg 73%

    10 Juin, Mercredi

    Heure Température Précipitation Vent Pression Humidité
    00:00 +10°C° 0 mm 2 m/s 640 mmHg 78%
    01:00 +11°C° 0 mm 1 m/s 639 mmHg 83%
    02:00 +10°C° 0 mm 1 m/s 639 mmHg 88%
    03:00 +10°C° 0 mm 1 m/s 639 mmHg 89%
    04:00 +10°C° 0 mm 1 m/s 639 mmHg 90%
    05:00 +10°C° 0 mm 1 m/s 639 mmHg 90%
    06:00 +11°C° 0 mm 1 m/s 640 mmHg 83%
    07:00 +13°C° 0 mm 1 m/s 641 mmHg 75%
    08:00 +14°C° 0 mm 1 m/s 641 mmHg 67%
    09:00 +18°C° 0 mm 1 m/s 642 mmHg 56%
    10:00 +19°C° 0 mm 2 m/s 642 mmHg 45%
    11:00 +23°C° 0 mm 2 m/s 643 mmHg 33%
    12:00 +24°C° 0 mm 2 m/s 642 mmHg 31%
    13:00 +24°C° 0 mm 2 m/s 642 mmHg 28%
    14:00 +25°C° 0 mm 2 m/s 641 mmHg 26%
    15:00 +24°C° 0 mm 2 m/s 641 mmHg 29%
    16:00 +23°C° 0 mm 2 m/s 640 mmHg 32%
    17:00 +21°C° 0 mm 2 m/s 640 mmHg 36%
    18:00 +19°C° 0 mm 3 m/s 640 mmHg 43%
    19:00 +16°C° 0 mm 3 m/s 640 mmHg 50%
    20:00 +13°C° 0 mm 3 m/s 639 mmHg 57%
    21:00 +13°C° 0 mm 3 m/s 639 mmHg 63%
    22:00 +12°C° 0 mm 3 m/s 639 mmHg 69%
    23:00 +12°C° 0 mm 3 m/s 639 mmHg 75%
    Voir plus